| time (UTC) | temp F | wind direction | speed knots | gust knots | rain 1hr in | rain 24hr in | rain mn in | humidity % | barometer mb |
| 20260507224703 | 41 | 103 | 2.6 | 3.5 | 0.00 | 0.00 | 0.00 | 79 | 1008.8 |
| 20260507224202 | 42 | 80 | 1.7 | 5.2 | 0.00 | 0.00 | 0.00 | 77 | 1008.8 |
| 20260507223659 | 42 | 79 | 2.6 | 5.2 | 0.00 | 0.00 | 0.00 | 75 | 1008.7 |
| 20260507223158 | 43 | 61 | 3.5 | 6.1 | 0.00 | 0.00 | 0.00 | 72 | 1008.6 |
| 20260507222653 | 43 | 69 | 4.3 | 6.1 | 0.00 | 0.00 | 0.00 | 70 | 1008.6 |
| 20260507222150 | 43 | 71 | 3.5 | 6.1 | 0.00 | 0.00 | 0.00 | 68 | 1008.6 |
| 20260507221651 | 43 | 62 | 3.5 | 10.4 | 0.00 | 0.00 | 0.00 | 68 | 1008.5 |
| 20260507221428 | 43 | 56 | 6.1 | 10.4 | 0.00 | 0.00 | 0.00 | 67 | 1008.6 |
| 20260507220652 | 44 | 55 | 7.0 | 9.6 | 0.00 | 0.00 | 0.00 | 66 | 1008.5 |
| 20260507220155 | 46 | 59 | 1.7 | 9.6 | 0.00 | 0.00 | 0.00 | 61 | 1008.6 |
| 20260507215605 | 47 | 257 | 5.2 | 10.4 | 0.00 | 0.00 | 0.00 | 54 | 1008.4 |
| 20260507215333 | 47 | 247 | 3.5 | 10.4 | 0.00 | 0.00 | 0.00 | 54 | 1008.4 |
| 20260507214605 | 47 | 262 | 4.3 | 9.6 | 0.00 | 0.00 | 0.00 | 55 | 1008.3 |
| 20260507214104 | 46 | 247 | 4.3 | 9.6 | 0.00 | 0.00 | 0.00 | 55 | 1008.3 |
| 20260507213604 | 46 | 231 | 3.5 | 6.1 | 0.00 | 0.00 | 0.00 | 60 | 1008.4 |
| 20260507213108 | 46 | 165 | 1.7 | 3.5 | 0.00 | 0.00 | 0.00 | 61 | 1008.4 |
| 20260507212558 | 45 | 202 | 1.7 | 4.3 | 0.00 | 0.00 | 0.00 | 64 | 1008.4 |
| 20260507212056 | 45 | 147 | 1.7 | 4.3 | 0.00 | 0.00 | 0.00 | 64 | 1008.3 |
| 20260507211556 | 45 | 137 | 0.0 | 5.2 | 0.00 | 0.00 | 0.00 | 66 | 1008.4 |
| 20260507211056 | 44 | 124 | 3.5 | 5.2 | 0.00 | 0.00 | 0.00 | 65 | 1008.4 |
| 20260507210555 | 44 | 97 | 1.7 | 5.2 | 0.00 | 0.00 | 0.00 | 67 | 1008.6 |
| 20260507210329 | 44 | 86 | 3.5 | 5.2 | 0.00 | 0.00 | 0.00 | 69 | 1008.5 |
| 20260507205505 | 44 | 96 | 3.5 | 5.2 | 0.00 | 0.00 | 0.00 | 69 | 1008.5 |
| 20260507205005 | 44 | 116 | 4.3 | 6.1 | 0.00 | 0.00 | 0.00 | 71 | 1008.6 |
| 20260507204505 | 44 | 141 | 3.5 | 6.1 | 0.00 | 0.00 | 0.00 | 71 | 1008.6 |
| 20260507204236 | 44 | 85 | 3.5 | 5.2 | 0.00 | 0.00 | 0.00 | 72 | 1008.7 |
| 20260507203504 | 43 | 85 | 0.9 | 6.1 | 0.00 | 0.00 | 0.00 | 72 | 1008.7 |
| 20260507203006 | 43 | 82 | 5.2 | 6.1 | 0.00 | 0.00 | 0.00 | 73 | 1008.6 |
| 20260507202503 | 43 | 86 | 3.5 | 4.3 | 0.00 | 0.00 | 0.00 | 72 | 1008.8 |
| 20260507202002 | 44 | 75 | 3.5 | 4.3 | 0.00 | 0.00 | 0.00 | 72 | 1008.8 |
| 20260507201503 | 44 | 89 | 1.7 | 4.3 | 0.00 | 0.00 | 0.00 | 73 | 1008.8 |
| 20260507201112 | 44 | 61 | 3.5 | 6.1 | 0.00 | 0.00 | 0.00 | 72 | 1008.8 |
| 20260507200743 | 44 | 80 | 3.5 | 6.1 | 0.00 | 0.00 | 0.00 | 74 | 1009.0 |
| 20260507200723 | 44 | 59 | 3.5 | 6.1 | 0.00 | 0.00 | 0.00 | 72 | 1008.9 |
| 20260507194956 | 43 | 63 | 3.5 | 4.3 | 0.00 | 0.00 | 0.00 | 73 | 1008.9 |
| 20260507194457 | 43 | 111 | 1.7 | 4.3 | 0.00 | 0.00 | 0.00 | 73 | 1009.0 |
| 20260507193955 | 43 | 109 | 2.6 | 4.3 | 0.00 | 0.00 | 0.00 | 73 | 1008.9 |
| 20260507193454 | 43 | 133 | 1.7 | 3.5 | 0.00 | 0.00 | 0.00 | 73 | 1009.0 |
| 20260507192950 | 42 | 24 | 2.6 | 3.5 | 0.00 | 0.00 | 0.00 | 73 | 1009.1 |
| 20260507192451 | 42 | 100 | 1.7 | 3.5 | 0.00 | 0.00 | 0.00 | 73 | 1009.2 |
| 20260507191448 | 42 | 100 | 0.9 | 3.5 | 0.00 | 0.00 | 0.00 | 75 | 1009.5 |
| 20260507190939 | 42 | 75 | 0.9 | 1.7 | 0.00 | 0.00 | 0.00 | 76 | 1009.6 |
| 20260507190441 | 42 | 78 | 0.9 | 2.6 | 0.00 | 0.00 | 0.00 | 77 | 1009.5 |
| 20260507185940 | 42 | 78 | 0.9 | 3.5 | 0.00 | 0.00 | 0.00 | 76 | 1009.7 |
| 20260507185438 | 42 | 37 | 0.9 | 3.5 | 0.00 | 0.00 | 0.00 | 78 | 1009.7 |
| 20260507184940 | 41 | 44 | 1.7 | 3.5 | 0.00 | 0.00 | 0.00 | 79 | 1009.6 |
| 20260507184437 | 41 | 66 | 1.7 | 3.5 | 0.00 | 0.00 | 0.00 | 78 | 1009.6 |
| 20260507183936 | 41 | 93 | 0.9 | 3.5 | 0.00 | 0.00 | 0.00 | 78 | 1009.6 |
| 20260507183436 | 41 | 47 | 0.9 | 3.5 | 0.00 | 0.00 | 0.00 | 78 | 1009.7 |
| 20260507183200 | 41 | 25 | 1.7 | 4.3 | 0.00 | 0.00 | 0.00 | 78 | 1009.8 |
| 20260507182436 | 41 | 62 | 1.7 | 5.2 | 0.00 | 0.00 | 0.00 | 77 | 1009.7 |
| 20260507182208 | 41 | 37 | 1.7 | 5.2 | 0.00 | 0.00 | 0.00 | 76 | 1009.8 |
| 20260507181434 | 42 | 18 | 1.7 | 4.3 | 0.00 | 0.00 | 0.00 | 76 | 1009.8 |
| 20260507180935 | 42 | 49 | 1.7 | 3.5 | 0.00 | 0.00 | 0.00 | 76 | 1009.9 |
| 20260507180700 | 42 | 28 | 1.7 | 5.2 | 0.00 | 0.00 | 0.00 | 75 | 1009.9 |
| 20260507175932 | 42 | 63 | 2.6 | 5.2 | 0.00 | 0.00 | 0.00 | 74 | 1009.9 |
| 20260507175431 | 42 | 34 | 1.7 | 4.3 | 0.00 | 0.00 | 0.00 | 75 | 1009.9 |
| 20260507174931 | 42 | 62 | 0.9 | 3.5 | 0.00 | 0.00 | 0.00 | 76 | 1010.0 |
| 20260507174430 | 42 | 65 | 1.7 | 3.5 | 0.00 | 0.00 | 0.00 | 75 | 1009.9 |
| 20260507173932 | 42 | 353 | 0.9 | 3.5 | 0.00 | 0.00 | 0.00 | 76 | 1010.0 |
| 20260507173431 | 42 | 8 | 2.6 | 4.3 | 0.00 | 0.00 | 0.00 | 76 | 1010.1 |
| 20260507172931 | 42 | 82 | 1.7 | 4.3 | 0.00 | 0.00 | 0.00 | 77 | 1009.9 |
| 20260507172431 | 42 | 343 | 0.9 | 4.3 | 0.00 | 0.00 | 0.00 | 76 | 1010.1 |
| 20260507171934 | 41 | 283 | 0.0 | 4.3 | 0.00 | 0.00 | 0.00 | 74 | 1010.2 |
| 20260507171428 | 42 | 79 | 2.6 | 4.3 | 0.00 | 0.00 | 0.00 | 72 | 1010.3 |
| 20260507170933 | 42 | 330 | 0.0 | 2.6 | 0.00 | 0.00 | 0.00 | 72 | 1010.3 |
| 20260507170427 | 42 | 254 | 0.9 | 4.3 | 0.00 | 0.00 | 0.00 | 71 | 1010.1 |
| 20260507165929 | 43 | 35 | 1.7 | 7.8 | 0.00 | 0.00 | 0.00 | 70 | 1010.1 |
| 20260507165425 | 43 | 8 | 2.6 | 7.8 | 0.00 | 0.00 | 0.00 | 70 | 1010.2 |
| 20260507165152 | 43 | 58 | 0.9 | 6.1 | 0.00 | 0.00 | 0.00 | 70 | 1010.1 |
| 20260507164422 | 43 | 24 | 3.5 | 6.1 | 0.00 | 0.00 | 0.00 | 69 | 1010.3 |
| 20260507163415 | 44 | 5 | 0.9 | 5.2 | 0.00 | 0.00 | 0.00 | 68 | 1010.2 |
| 20260507162912 | 44 | 31 | 2.6 | 7.8 | 0.00 | 0.00 | 0.00 | 66 | 1010.2 |
| 20260507162412 | 44 | 25 | 1.7 | 7.8 | 0.00 | 0.00 | 0.00 | 65 | 1010.2 |
| 20260507161410 | 45 | 2 | 3.5 | 11.3 | 0.00 | 0.00 | 0.00 | 59 | 1010.3 |
| 20260507160909 | 45 | 337 | 1.7 | 8.7 | 0.00 | 0.00 | 0.00 | 58 | 1010.4 |
| 20260507160640 | 45 | 331 | 3.5 | 9.6 | 0.00 | 0.00 | 0.00 | 58 | 1010.4 |
| 20260507155908 | 45 | 334 | 4.3 | 9.6 | 0.00 | 0.00 | 0.00 | 59 | 1010.4 |
| 20260507155411 | 46 | 327 | 0.9 | 10.4 | 0.00 | 0.00 | 0.00 | 57 | 1010.4 |
| 20260507155131 | 46 | 286 | 2.6 | 10.4 | 0.00 | 0.00 | 0.00 | 58 | 1010.5 |
| 20260507154405 | 46 | 262 | 2.6 | 9.6 | 0.00 | 0.00 | 0.00 | 59 | 1010.4 |
| 20260507153902 | 45 | 279 | 3.5 | 8.7 | 0.00 | 0.00 | 0.00 | 57 | 1010.5 |
| 20260507153631 | 45 | 299 | 3.5 | 7.8 | 0.00 | 0.00 | 0.00 | 59 | 1010.4 |
| 20260507152902 | 44 | 314 | 3.5 | 7.8 | 0.00 | 0.00 | 0.00 | 59 | 1010.5 |
| 20260507152401 | 44 | 298 | 3.5 | 11.3 | 0.00 | 0.00 | 0.00 | 62 | 1010.6 |
| 20260507151859 | 44 | 149 | 0.9 | 11.3 | 0.00 | 0.00 | 0.00 | 64 | 1010.6 |
| 20260507151132 | 43 | 25 | 2.6 | 3.5 | 0.00 | 0.00 | 0.00 | 67 | 1010.7 |
| 20260507150400 | 43 | 7 | 0.9 | 4.3 | 0.00 | 0.00 | 0.00 | 66 | 1010.6 |
| 20260507145858 | 44 | 9 | 1.7 | 5.2 | 0.00 | 0.00 | 0.00 | 68 | 1010.6 |
| 20260507145358 | 44 | 25 | 2.6 | 5.2 | 0.00 | 0.00 | 0.00 | 68 | 1010.6 |
| 20260507144858 | 44 | 31 | 2.6 | 4.3 | 0.00 | 0.00 | 0.00 | 68 | 1010.7 |
| 20260507144358 | 44 | 56 | 1.7 | 4.3 | 0.00 | 0.00 | 0.00 | 66 | 1010.6 |
| 20260507143856 | 44 | 355 | 2.6 | 4.3 | 0.00 | 0.00 | 0.00 | 69 | 1010.6 |
| 20260507143357 | 44 | 59 | 0.0 | 6.1 | 0.00 | 0.00 | 0.00 | 68 | 1010.6 |
| 20260507142856 | 44 | 72 | 1.7 | 6.1 | 0.00 | 0.00 | 0.00 | 64 | 1010.7 |
| 20260507142356 | 44 | 344 | 1.7 | 6.1 | 0.00 | 0.00 | 0.00 | 61 | 1010.6 |
| 20260507141855 | 44 | 299 | 3.5 | 7.8 | 0.00 | 0.00 | 0.00 | 61 | 1010.6 |
| 20260507141356 | 44 | 358 | 2.6 | 8.7 | 0.00 | 0.00 | 0.00 | 62 | 1010.5 |
| 20260507141126 | 44 | 298 | 3.5 | 8.7 | 0.00 | 0.00 | 0.00 | 62 | 1010.6 |
| 20260507135855 | 44 | 293 | 4.3 | 7.8 | 0.00 | 0.00 | 0.00 | 63 | 1010.8 |
| 20260507135414 | 44 | 282 | 1.7 | 6.1 | 0.00 | 0.00 | 0.00 | 63 | 1010.7 |
| 20260507134855 | 44 | 279 | 3.5 | 6.1 | 0.00 | 0.00 | 0.00 | 63 | 1010.7 |
| 20260507134356 | 44 | 323 | 0.9 | 6.1 | 0.00 | 0.00 | 0.00 | 64 | 1010.6 |
| 20260507134124 | 44 | 282 | 4.3 | 6.1 | 0.00 | 0.00 | 0.00 | 64 | 1010.7 |
| 20260507133358 | 44 | 289 | 0.9 | 8.7 | 0.00 | 0.00 | 0.00 | 64 | 1010.7 |
| 20260507132854 | 44 | 271 | 3.5 | 8.7 | 0.00 | 0.00 | 0.00 | 64 | 1010.6 |
| 20260507132355 | 44 | 250 | 3.5 | 6.1 | 0.00 | 0.00 | 0.00 | 65 | 1010.6 |
| 20260507131854 | 44 | 272 | 2.6 | 8.7 | 0.00 | 0.00 | 0.00 | 67 | 1010.6 |
| 20260507131355 | 44 | 227 | 4.3 | 8.7 | 0.00 | 0.00 | 0.00 | 68 | 1010.7 |
| 20260507131125 | 44 | 281 | 2.6 | 8.7 | 0.00 | 0.00 | 0.00 | 70 | 1010.7 |
| 20260507130354 | 43 | 265 | 3.5 | 6.1 | 0.00 | 0.00 | 0.00 | 71 | 1010.8 |
| 20260507125853 | 42 | 254 | 2.6 | 6.1 | 0.00 | 0.00 | 0.00 | 72 | 1010.7 |
| 20260507125356 | 42 | 286 | 3.5 | 6.1 | 0.00 | 0.00 | 0.00 | 73 | 1010.7 |
| 20260507124853 | 42 | 212 | 2.6 | 6.1 | 0.00 | 0.00 | 0.00 | 73 | 1010.7 |
| 20260507124353 | 42 | 307 | 4.3 | 6.1 | 0.00 | 0.00 | 0.00 | 74 | 1010.7 |
| 20260507123853 | 42 | 296 | 3.5 | 6.1 | 0.00 | 0.00 | 0.00 | 75 | 1010.7 |
| 20260507123353 | 41 | 264 | 0.9 | 4.3 | 0.00 | 0.00 | 0.00 | 75 | 1010.7 |
| 20260507122852 | 41 | 254 | 3.5 | 4.3 | 0.00 | 0.00 | 0.00 | 77 | 1010.7 |
| 20260507122353 | 41 | 262 | 1.7 | 4.3 | 0.00 | 0.00 | 0.00 | 78 | 1010.7 |
| 20260507122121 | 40 | 281 | 1.7 | 4.3 | 0.00 | 0.00 | 0.00 | 79 | 1010.6 |
| 20260507121352 | 39 | 275 | 2.6 | 4.3 | 0.00 | 0.00 | 0.00 | 80 | 1010.6 |
| 20260507120852 | 38 | 254 | 2.6 | 4.3 | 0.00 | 0.00 | 0.00 | 82 | 1010.6 |
| 20260507120352 | 38 | 247 | 2.6 | 4.3 | 0.00 | 0.00 | 0.00 | 82 | 1010.7 |
| 20260507115852 | 37 | 221 | 1.7 | 4.3 | 0.00 | 0.00 | 0.00 | 83 | 1010.6 |
| 20260507115352 | 36 | 261 | 1.7 | 4.3 | 0.00 | 0.00 | 0.00 | 84 | 1010.6 |
| 20260507114852 | 35 | 243 | 1.7 | 4.3 | 0.00 | 0.00 | 0.00 | 84 | 1010.5 |
| 20260507114622 | 35 | 268 | 2.6 | 4.3 | 0.00 | 0.00 | 0.00 | 84 | 1010.5 |
| 20260507114118 | 34 | 244 | 2.6 | 3.5 | 0.00 | 0.00 | 0.00 | 85 | 1010.5 |
| 20260507113351 | 34 | 254 | 2.6 | 3.5 | 0.00 | 0.00 | 0.00 | 86 | 1010.4 |
| 20260507112624 | 33 | 241 | 1.7 | 3.5 | 0.00 | 0.00 | 0.00 | 87 | 1010.3 |
| 20260507111850 | 33 | 259 | 1.7 | 3.5 | 0.00 | 0.00 | 0.00 | 87 | 1010.4 |
| 20260507111351 | 33 | 247 | 1.7 | 3.5 | 0.00 | 0.00 | 0.00 | 87 | 1010.3 |
| 20260507110850 | 32 | 254 | 1.7 | 3.5 | 0.00 | 0.00 | 0.00 | 87 | 1010.3 |
| 20260507110350 | 32 | 269 | 1.7 | 4.3 | 0.00 | 0.00 | 0.00 | 87 | 1010.3 |
| 20260507105851 | 32 | 268 | 1.7 | 4.3 | 0.00 | 0.00 | 0.00 | 87 | 1010.3 |
| 20260507105351 | 31 | 230 | 2.6 | 4.3 | 0.00 | 0.00 | 0.00 | 88 | 1010.2 |
| 20260507104851 | 31 | 228 | 1.7 | 3.5 | 0.00 | 0.00 | 0.00 | 87 | 1010.2 |
| 20260507104347 | 31 | 244 | 1.7 | 3.5 | 0.00 | 0.00 | 0.00 | 87 | 1010.2 |
| 20260507103850 | 31 | 244 | 1.7 | 3.5 | 0.00 | 0.00 | 0.00 | 87 | 1010.1 |
| 20260507103346 | 31 | 245 | 1.7 | 2.6 | 0.00 | 0.00 | 0.00 | 87 | 1010.1 |
| 20260507102848 | 30 | 247 | 1.7 | 2.6 | 0.00 | 0.00 | 0.00 | 87 | 1010.1 |
| 20260507102347 | 30 | 252 | 1.7 | 2.6 | 0.00 | 0.00 | 0.00 | 87 | 1010.1 |
| 20260507102130 | 30 | 258 | 1.7 | 2.6 | 0.00 | 0.00 | 0.00 | 87 | 1010.0 |
| 20260507101347 | 30 | 255 | 1.7 | 2.6 | 0.00 | 0.00 | 0.00 | 86 | 1010.2 |
| 20260507100847 | 30 | 255 | 0.9 | 2.6 | 0.00 | 0.00 | 0.00 | 86 | 1010.1 |
| 20260507100345 | 30 | 245 | 1.7 | 5.2 | 0.00 | 0.00 | 0.00 | 86 | 1010.2 |
| 20260507095844 | 30 | 243 | 1.7 | 5.2 | 0.00 | 0.00 | 0.00 | 86 | 1010.2 |
| 20260507095613 | 30 | 241 | 2.6 | 5.2 | 0.00 | 0.00 | 0.00 | 86 | 1010.2 |
| 20260507095123 | 30 | 237 | 2.6 | 4.3 | 0.00 | 0.00 | 0.00 | 86 | 1010.1 |
| 20260507094607 | 30 | 237 | 1.7 | 2.6 | 0.00 | 0.00 | 0.00 | 86 | 1010.1 |
| 20260507094106 | 30 | 234 | 1.7 | 2.6 | 0.00 | 0.00 | 0.00 | 85 | 1010.1 |
| 20260507093337 | 30 | 247 | 1.7 | 2.6 | 0.00 | 0.00 | 0.00 | 85 | 1010.1 |
| 20260507092840 | 30 | 252 | 1.7 | 2.6 | 0.00 | 0.00 | 0.00 | 85 | 1010.2 |
| 20260507092337 | 31 | 252 | 0.9 | 2.6 | 0.00 | 0.00 | 0.00 | 85 | 1010.2 |
| 20260507091837 | 31 | 245 | 1.7 | 2.6 | 0.00 | 0.00 | 0.00 | 85 | 1010.3 |
| 20260507091333 | 31 | 237 | 1.7 | 2.6 | 0.00 | 0.00 | 0.00 | 84 | 1010.3 |
| 20260507090832 | 31 | 279 | 0.9 | 2.6 | 0.00 | 0.00 | 0.00 | 85 | 1010.2 |
| 20260507090331 | 31 | 275 | 1.7 | 2.6 | 0.00 | 0.00 | 0.00 | 84 | 1010.2 |
| 20260507085832 | 31 | 274 | 1.7 | 2.6 | 0.00 | 0.00 | 0.00 | 84 | 1010.3 |
| 20260507085331 | 31 | 255 | 1.7 | 2.6 | 0.00 | 0.00 | 0.00 | 84 | 1010.3 |
| 20260507084831 | 31 | 247 | 1.7 | 4.3 | 0.00 | 0.00 | 0.00 | 84 | 1010.3 |
| 20260507084600 | 31 | 251 | 1.7 | 4.3 | 0.00 | 0.00 | 0.00 | 84 | 1010.3 |
| 20260507084102 | 31 | 241 | 1.7 | 3.5 | 0.00 | 0.00 | 0.00 | 83 | 1010.3 |
| 20260507083331 | 31 | 244 | 1.7 | 2.6 | 0.00 | 0.00 | 0.00 | 83 | 1010.4 |
| 20260507082831 | 31 | 251 | 1.7 | 3.5 | 0.00 | 0.00 | 0.00 | 83 | 1010.4 |
| 20260507082331 | 31 | 248 | 2.6 | 3.5 | 0.00 | 0.00 | 0.00 | 83 | 1010.4 |
| 20260507081831 | 31 | 245 | 1.7 | 3.5 | 0.00 | 0.00 | 0.00 | 82 | 1010.4 |
| 20260507081331 | 31 | 250 | 1.7 | 3.5 | 0.00 | 0.00 | 0.00 | 82 | 1010.4 |
| 20260507081102 | 31 | 252 | 2.6 | 3.5 | 0.00 | 0.00 | 0.00 | 82 | 1010.4 |
| 20260507080331 | 31 | 257 | 1.7 | 2.6 | 0.00 | 0.00 | 0.00 | 81 | 1010.4 |
| 20260507075830 | 31 | 251 | 1.7 | 3.5 | 0.00 | 0.00 | 0.00 | 81 | 1010.5 |
| 20260507075556 | 32 | 261 | 1.7 | 3.5 | 0.00 | 0.00 | 0.00 | 81 | 1010.5 |
| 20260507074832 | 32 | 240 | 1.7 | 3.5 | 0.00 | 0.00 | 0.00 | 81 | 1010.6 |
| 20260507074557 | 32 | 238 | 1.7 | 3.5 | 0.00 | 0.00 | 0.00 | 80 | 1010.6 |
| 20260507073831 | 32 | 247 | 1.7 | 3.5 | 0.00 | 0.00 | 0.00 | 80 | 1010.6 |
| 20260507073331 | 32 | 245 | 1.7 | 3.5 | 0.00 | 0.00 | 0.00 | 79 | 1010.6 |
| 20260507072831 | 33 | 244 | 1.7 | 2.6 | 0.00 | 0.00 | 0.00 | 79 | 1010.6 |
| 20260507072334 | 33 | 268 | 1.7 | 2.6 | 0.00 | 0.00 | 0.00 | 79 | 1010.6 |
| 20260507071829 | 33 | 268 | 1.7 | 2.6 | 0.00 | 0.00 | 0.00 | 78 | 1010.5 |
| 20260507071330 | 33 | 230 | 1.7 | 3.5 | 0.00 | 0.00 | 0.00 | 78 | 1010.5 |
| 20260507070828 | 33 | 262 | 1.7 | 3.5 | 0.00 | 0.00 | 0.00 | 78 | 1010.6 |
| 20260507070551 | 33 | 250 | 1.7 | 3.5 | 0.00 | 0.00 | 0.00 | 78 | 1010.7 |
| 20260507065828 | 34 | 257 | 1.7 | 3.5 | 0.00 | 0.00 | 0.00 | 78 | 1010.6 |
| 20260507065326 | 34 | 237 | 2.6 | 4.3 | 0.00 | 0.00 | 0.00 | 78 | 1010.7 |
| 20260507064825 | 34 | 245 | 2.6 | 4.3 | 0.00 | 0.00 | 0.00 | 77 | 1010.8 |
| 20260507064322 | 34 | 244 | 2.6 | 4.3 | 0.00 | 0.00 | 0.00 | 77 | 1010.9 |
| 20260507063320 | 35 | 247 | 2.6 | 3.5 | 0.00 | 0.00 | 0.00 | 76 | 1010.9 |
| 20260507063048 | 35 | 238 | 1.7 | 3.5 | 0.00 | 0.00 | 0.00 | 76 | 1010.9 |
| 20260507062318 | 35 | 245 | 2.6 | 3.5 | 0.00 | 0.00 | 0.00 | 76 | 1010.9 |
| 20260507062042 | 36 | 250 | 1.7 | 3.5 | 0.00 | 0.00 | 0.00 | 76 | 1010.9 |
| 20260507061312 | 36 | 240 | 1.7 | 1.7 | 0.00 | 0.00 | 0.00 | 75 | 1010.8 |
| 20260507060808 | 36 | 265 | 0.0 | 0.0 | 0.00 | 0.00 | 0.00 | 75 | 1010.8 |
| 20260507060310 | 36 | 265 | 0.0 | 0.9 | 0.00 | 0.00 | 0.00 | 75 | 1010.9 |
| 20260507060034 | 36 | 267 | 0.0 | 1.7 | 0.00 | 0.00 | 0.00 | 76 | 1011.0 |
| 20260507055306 | 36 | 271 | 0.9 | 2.6 | 0.00 | 0.00 | 0.00 | 76 | 1011.1 |
| 20260507054804 | 36 | 227 | 0.9 | 2.6 | 0.00 | 0.00 | 0.00 | 76 | 1011.0 |
| 20260507054534 | 36 | 310 | 0.0 | 1.7 | 0.00 | 0.00 | 0.00 | 77 | 1011.1 |
| 20260507053803 | 36 | 19 | 0.0 | 2.6 | 0.00 | 0.00 | 0.00 | 78 | 1011.2 |
| 20260507053302 | 36 | 32 | 0.9 | 2.6 | 0.00 | 0.00 | 0.00 | 78 | 1011.2 |
| 20260507053030 | 36 | 259 | 1.7 | 2.6 | 0.00 | 0.00 | 0.00 | 78 | 1011.2 |
| 20260507052306 | 36 | 250 | 1.7 | 3.5 | 0.00 | 0.00 | 0.00 | 78 | 1011.3 |
| 20260507051800 | 35 | 262 | 1.7 | 3.5 | 0.00 | 0.00 | 0.00 | 79 | 1011.4 |
| 20260507051300 | 35 | 258 | 1.7 | 3.5 | 0.00 | 0.00 | 0.00 | 79 | 1011.4 |
| 20260507050758 | 35 | 254 | 1.7 | 2.6 | 0.00 | 0.00 | 0.00 | 79 | 1011.4 |
| 20260507050258 | 35 | 252 | 0.9 | 2.6 | 0.00 | 0.00 | 0.00 | 78 | 1011.4 |
| 20260507045756 | 35 | 261 | 0.9 | 2.6 | 0.00 | 0.00 | 0.00 | 78 | 1011.3 |
| 20260507045255 | 35 | 267 | 0.9 | 2.6 | 0.00 | 0.00 | 0.00 | 78 | 1011.4 |
| 20260507044756 | 35 | 255 | 1.7 | 2.6 | 0.00 | 0.00 | 0.00 | 78 | 1011.4 |
| 20260507044256 | 35 | 252 | 1.7 | 2.6 | 0.00 | 0.00 | 0.00 | 78 | 1011.4 |
| 20260507044027 | 35 | 261 | 1.7 | 2.6 | 0.00 | 0.00 | 0.00 | 78 | 1011.4 |
| 20260507043251 | 35 | 254 | 1.7 | 2.6 | 0.00 | 0.00 | 0.00 | 77 | 1011.5 |
| 20260507043023 | 36 | 259 | 1.7 | 2.6 | 0.00 | 0.00 | 0.00 | 77 | 1011.4 |
| 20260507042249 | 36 | 274 | 1.7 | 2.6 | 0.00 | 0.00 | 0.00 | 76 | 1011.5 |
| 20260507041749 | 36 | 272 | 1.7 | 2.6 | 0.00 | 0.00 | 0.00 | 76 | 1011.5 |
| 20260507041247 | 36 | 258 | 0.9 | 1.7 | 0.00 | 0.00 | 0.00 | 76 | 1011.5 |
| 20260507040746 | 36 | 255 | 0.9 | 2.6 | 0.00 | 0.00 | 0.00 | 76 | 1011.5 |
| 20260507040248 | 37 | 276 | 1.7 | 2.6 | 0.00 | 0.00 | 0.00 | 75 | 1011.5 |
| 20260507035741 | 37 | 255 | 1.7 | 2.6 | 0.00 | 0.00 | 0.00 | 75 | 1011.4 |
| 20260507035241 | 37 | 272 | 0.9 | 2.6 | 0.00 | 0.00 | 0.00 | 74 | 1011.4 |
| 20260507035008 | 37 | 276 | 1.7 | 2.6 | 0.00 | 0.00 | 0.00 | 74 | 1011.3 |
| 20260507034243 | 38 | 272 | 1.7 | 2.6 | 0.00 | 0.00 | 0.00 | 74 | 1011.4 |
| 20260507033740 | 38 | 268 | 1.7 | 2.6 | 0.00 | 0.00 | 0.00 | 73 | 1011.4 |
| 20260507033240 | 38 | 248 | 0.9 | 1.7 | 0.00 | 0.00 | 0.00 | 73 | 1011.4 |
| 20260507032740 | 38 | 250 | 0.9 | 1.7 | 0.00 | 0.00 | 0.00 | 72 | 1011.4 |
| 20260507032238 | 39 | 254 | 0.0 | 1.7 | 0.00 | 0.00 | 0.00 | 72 | 1011.5 |
| 20260507031238 | 39 | 269 | 0.9 | 2.6 | 0.00 | 0.00 | 0.00 | 71 | 1011.6 |
| 20260507030735 | 39 | 274 | 0.9 | 3.5 | 0.00 | 0.00 | 0.00 | 70 | 1011.6 |
| 20260507030234 | 39 | 274 | 1.7 | 3.5 | 0.00 | 0.00 | 0.00 | 71 | 1011.6 |
| 20260507025734 | 39 | 310 | 1.7 | 2.6 | 0.00 | 0.00 | 0.00 | 71 | 1011.6 |
| 20260507025501 | 40 | 283 | 0.9 | 3.5 | 0.00 | 0.00 | 0.00 | 72 | 1011.6 |
| 20260507024735 | 40 | 286 | 0.9 | 3.5 | 0.00 | 0.00 | 0.00 | 72 | 1011.6 |
| 20260507024233 | 40 | 309 | 0.9 | 2.6 | 0.00 | 0.00 | 0.00 | 73 | 1011.5 |
| 20260507023732 | 40 | 283 | 0.0 | 1.7 | 0.00 | 0.00 | 0.00 | 73 | 1011.3 |
| 20260507023233 | 40 | 316 | 0.0 | 2.6 | 0.00 | 0.00 | 0.00 | 73 | 1011.3 |
| 20260507022732 | 40 | 300 | 0.9 | 2.6 | 0.00 | 0.00 | 0.00 | 74 | 1011.4 |
| 20260507022232 | 40 | 317 | 0.0 | 2.6 | 0.00 | 0.00 | 0.00 | 74 | 1011.3 |
| 20260507021731 | 40 | 295 | 0.0 | 2.6 | 0.00 | 0.00 | 0.00 | 74 | 1011.3 |
| 20260507021231 | 40 | 334 | 1.7 | 2.6 | 0.00 | 0.00 | 0.00 | 72 | 1011.3 |
| 20260507020734 | 40 | 331 | 0.0 | 2.6 | 0.00 | 0.00 | 0.00 | 72 | 1011.3 |
| 20260507020458 | 40 | 329 | 1.7 | 2.6 | 0.00 | 0.00 | 0.00 | 71 | 1011.3 |
| 20260507015732 | 40 | 322 | 0.9 | 2.6 | 0.00 | 0.00 | 0.00 | 71 | 1011.3 |
| 20260507015231 | 40 | 281 | 0.9 | 2.6 | 0.00 | 0.00 | 0.00 | 71 | 1011.2 |
| 20260507014731 | 40 | 261 | 1.7 | 2.6 | 0.00 | 0.00 | 0.00 | 71 | 1011.2 |
| 20260507014231 | 40 | 259 | 1.7 | 2.6 | 0.00 | 0.00 | 0.00 | 70 | 1011.2 |
| 20260507013732 | 41 | 247 | 0.9 | 3.5 | 0.00 | 0.00 | 0.00 | 70 | 1011.1 |
| 20260507013234 | 41 | 261 | 0.9 | 3.5 | 0.00 | 0.00 | 0.00 | 69 | 1011.1 |
| 20260507012732 | 41 | 272 | 1.7 | 4.3 | 0.00 | 0.00 | 0.00 | 69 | 1011.1 |
| 20260507012232 | 41 | 296 | 0.9 | 4.3 | 0.00 | 0.00 | 0.00 | 69 | 1011.1 |
| 20260507011731 | 41 | 307 | 0.9 | 4.3 | 0.00 | 0.00 | 0.00 | 69 | 1011.1 |
| 20260507011232 | 41 | 334 | 1.7 | 4.3 | 0.00 | 0.00 | 0.00 | 69 | 1010.9 |
| 20260507010731 | 41 | 334 | 0.9 | 4.3 | 0.00 | 0.00 | 0.00 | 70 | 1011.0 |
| 20260507010232 | 41 | 351 | 1.7 | 4.3 | 0.00 | 0.00 | 0.00 | 68 | 1011.0 |
| 20260507005726 | 41 | 316 | 1.7 | 4.3 | 0.00 | 0.00 | 0.00 | 68 | 1011.0 |
| 20260507005454 | 41 | 322 | 1.7 | 6.1 | 0.00 | 0.00 | 0.00 | 68 | 1010.9 |
| 20260507004724 | 41 | 0 | 2.6 | 6.1 | 0.00 | 0.00 | 0.00 | 70 | 1011.0 |
| 20260507004224 | 41 | 243 | 1.7 | 4.3 | 0.00 | 0.00 | 0.00 | 73 | 1010.9 |
| 20260507003724 | 41 | 338 | 2.6 | 6.1 | 0.00 | 0.00 | 0.00 | 72 | 1010.9 |
| 20260507003225 | 41 | 340 | 2.6 | 6.1 | 0.00 | 0.00 | 0.00 | 71 | 1010.8 |
| 20260507002947 | 41 | 320 | 1.7 | 6.1 | 0.00 | 0.00 | 0.00 | 71 | 1010.8 |
| 20260507002223 | 41 | 333 | 2.6 | 6.1 | 0.00 | 0.00 | 0.00 | 73 | 1010.8 |
| 20260507001723 | 41 | 2 | 1.7 | 6.1 | 0.00 | 0.00 | 0.00 | 74 | 1010.8 |
| 20260507001223 | 41 | 358 | 3.5 | 7.8 | 0.00 | 0.00 | 0.00 | 73 | 1010.8 |
| 20260507000723 | 41 | 334 | 3.5 | 9.6 | 0.00 | 0.00 | 0.00 | 72 | 1010.8 |
| 20260507000223 | 41 | 340 | 4.3 | 10.4 | 0.00 | 0.00 | 0.00 | 73 | 1010.7 |
| 20260506235726 | 41 | 305 | 3.5 | 10.4 | 0.00 | 0.00 | 0.00 | 74 | 1010.7 |
| 20260506235220 | 41 | 11 | 3.5 | 6.1 | 0.00 | 0.00 | 0.00 | 75 | 1010.7 |
| 20260506234720 | 41 | 312 | 2.6 | 6.1 | 0.00 | 0.00 | 0.00 | 75 | 1010.6 |
| 20260506234219 | 41 | 336 | 2.6 | 8.7 | 0.00 | 0.00 | 0.00 | 74 | 1010.7 |
| 20260506233718 | 41 | 31 | 2.6 | 8.7 | 0.00 | 0.00 | 0.00 | 74 | 1010.7 |
| 20260506232717 | 41 | 28 | 3.5 | 9.6 | 0.00 | 0.00 | 0.00 | 73 | 1010.7 |
| 20260506232458 | 41 | 327 | 4.3 | 9.6 | 0.00 | 0.00 | 0.00 | 73 | 1010.6 |
| 20260506231718 | 41 | 351 | 3.5 | 12.2 | 0.00 | 0.00 | 0.00 | 73 | 1010.6 |
| 20260506231217 | 41 | 324 | 5.2 | 12.2 | 0.00 | 0.00 | 0.00 | 73 | 1010.8 |
| 20260506230938 | 41 | 340 | 3.5 | 10.4 | 0.00 | 0.00 | 0.00 | 73 | 1010.7 |
| 20260506230215 | 41 | 348 | 4.3 | 11.3 | 0.00 | 0.00 | 0.00 | 73 | 1010.7 |
| 20260506225659 | 41 | 323 | 5.2 | 10.4 | 0.00 | 0.00 | 0.00 | 73 | 1010.7 |
| 20260506225427 | 41 | 0 | 3.5 | 9.6 | 0.00 | 0.00 | 0.00 | 73 | 1010.7 |